Haines, AK

9:21 AM AKDT on July 20, 2017 (GMT -0800)
Haines

Weather History for PAHN - January, 2012

Change the Weather History Date:

Tuesday, January 17, 2012

  Actual Average Record
Temperature  
Mean Temperature 4 °F -  
Max Temperature 8 °F 26 °F 45 °F (1981)
Min Temperature 1 °F 19 °F -3 °F (1974)
Degree Days  
Heating Degree Days 60    
Moisture  
Dew Point -10 °F    
Average Humidity 49    
Maximum Humidity 58    
Minimum Humidity 42    
Precipitation  
Precipitation 0.00 in - - ()
Sea Level Pressure  
Sea Level Pressure 30.60 in    
Wind  
Wind Speed 7 mph (NW)    
Max Wind Speed 14 mph    
Max Gust Speed -    
Visibility 10 miles    
Events      
Averages and records for this station are not official NWS values.
T = Trace of Precipitation, MM = Missing Value Source: NWS Daily Summary

Daily Weather History Graph

Daily Weather History Graph

Search for Another Location

Airport or City:

Trip Planner

Search our weather history database for the weather conditions in past years. The results will help you decide how hot, cold, wet, or windy it might be!

Date:

Astronomy

Jan. 17, 2012 Rise Set
Actual Time 8:41 AM AKST 3:43 PM AKST
Civil Twilight 7:50 AM AKST 4:33 PM AKST
Nautical Twilight 6:58 AM AKST 5:26 PM AKST
Astronomical Twilight 6:10 AM AKST 6:14 PM AKST
Moon 3:02 AM AKST (1/17) 10:45 AM AKST (1/17)
Length of Visible Light 8h 42m
Length of Day
7h 02m
Waning Crescent, 33% of the Moon is Illuminated
Jan 17
Waning Crescent
Jan 22
New
Jan 30
First Quarter
Feb 7
Full
Feb 14
Last Quarter

Hourly Weather History & Observations

Time (AKST) Temp. Windchill Dew Point Humidity Pressure Visibility Wind Dir Wind Speed Gust Speed Precip Events Conditions
12:54 AM 3.0 °F -8.0 °F -11.0 °F 52% 30.71 in 10.0 mi NNW 5.8 mph - N/A   Clear
1:54 AM 3.0 °F -6.4 °F -11.0 °F 52% 30.71 in 10.0 mi Variable 4.6 mph - N/A   Scattered Clouds
3:54 AM 3.0 °F -9.3 °F -11.0 °F 52% 30.68 in 10.0 mi NW 6.9 mph - N/A   Clear
4:54 AM 1.9 °F -13.8 °F -11.0 °F 55% 30.67 in 10.0 mi WNW 10.4 mph - N/A   Clear
5:54 AM 1.9 °F -7.6 °F -11.9 °F 52% 30.66 in 10.0 mi NW 4.6 mph - N/A   Clear
6:54 AM 1.9 °F -9.2 °F -11.9 °F 52% 30.65 in 10.0 mi NW 5.8 mph - N/A   Clear
7:54 AM 3.9 °F -9.4 °F -14.1 °F 43% 30.64 in 10.0 mi NW 8.1 mph - N/A   Scattered Clouds
8:54 AM 3.9 °F -9.4 °F -14.1 °F 43% 30.63 in 10.0 mi NW 8.1 mph - N/A   Clear
9:54 AM 3.9 °F -9.4 °F -11.9 °F 48% 30.62 in 10.0 mi NW 8.1 mph - N/A   Clear
11:54 AM 7.0 °F -4.5 °F -11.0 °F 44% 30.60 in 10.0 mi WNW 6.9 mph - N/A   Clear
12:54 PM 8.1 °F -2.0 °F -11.0 °F 42% 30.59 in 10.0 mi NW 5.8 mph - N/A   Clear
1:54 PM 8.1 °F -2.0 °F -11.0 °F 42% 30.58 in 10.0 mi NW 5.8 mph - N/A   Clear
2:54 PM 7.0 °F -4.5 °F -9.0 °F 48% 30.57 in 10.0 mi West 6.9 mph - N/A   Clear
3:54 PM 8.1 °F -0.5 °F -9.0 °F 46% 30.57 in 10.0 mi NNW 4.6 mph - N/A   Clear
4:54 PM 6.1 °F -5.6 °F -8.0 °F 53% 30.55 in 10.0 mi NW 6.9 mph - N/A   Clear
5:54 PM 7.0 °F -3.3 °F -9.0 °F 48% 30.55 in 10.0 mi NW 5.8 mph - N/A   Clear
6:54 PM 3.9 °F -10.4 °F -8.0 °F 58% 30.54 in 10.0 mi WNW 9.2 mph - N/A   Clear
7:54 PM 6.1 °F -6.8 °F -9.0 °F 50% 30.54 in 10.0 mi WNW 8.1 mph - N/A   Clear
8:54 PM 6.1 °F -0.9 °F -9.0 °F 50% 30.53 in 10.0 mi NW 3.5 mph - N/A   Partly Cloudy
9:54 PM 7.0 °F -5.7 °F -9.9 °F 46% 30.51 in 10.0 mi NW 8.1 mph - N/A   Clear
10:54 PM 7.0 °F -8.3 °F -9.0 °F 48% 30.51 in 10.0 mi NW 11.5 mph - N/A   Clear
11:54 PM 7.0 °F -9.8 °F -9.0 °F 48% 30.50 in 10.0 mi NW 13.8 mph - N/A   Clear